This demonstration page uses our WeatherBlox Daily Observations layout. Learn more.

Left ArrowRight Arrow

41.55636, -103.73856

Hourly Observations for October 1, 2022

Temp ( °F °C ) Dew Point ( °F °C ) Humidity (%) Winds ( mph kmh ) Pressure ( in mb ) Visibility ( mi km ) Precip ( " mm )
12:56 am 00:56 Cloudy 56 13.3 51 10.5 83 83 W 9 15 29.86 1011 10 16 0.01 0.25
1:56 am 01:56 Partly Cloudy 55 12.5 52 10.9 90 90 WNW 3 6 29.87 1011 10 16 0.00 0.00
2:56 am 02:56 Mostly Cloudy 54 12.4 51 10.6 89 89 WNW 10 17 29.90 1012 10 16 0.00 0.00
3:56 am 03:56 Mostly Cloudy 52 11.3 50 10 92 92 W 8 13 29.89 1012 10 16 0.00 0.00
4:56 am 04:56 Partly Cloudy 52 11.2 49 9.6 90 90 W 3 6 29.93 1014 10 16 0.00 0.00
5:56 am 05:56 Mostly Clear 52 10.9 49 9.5 91 91 Calm 29.96 1015 10 16 0.00 0.00
6:56 am 06:56 Cloudy 51 10.3 48 8.9 91 91 WNW 6 9 29.99 1016 10 16 0.00 0.00
7:56 am 07:56 Partly Cloudy 53 11.9 51 10.6 92 92 Calm 29.98 1015 10 16 0.00 0.00
8:56 am 08:56 Sunny 55 12.7 52 11.1 90 90 W 7 11 30.01 1016 10 16 0.00 0.00
9:56 am 09:56 Sunny 56 13.4 51 10.7 84 84 NNW 9 15 30.01 1016 10 16 0.00 0.00
10:56 am 10:56 Mostly Cloudy 60 15.3 50 10.1 71 71 N 3 6 30.01 1016 10 16 0.00 0.00
11:56 am 11:56 Partly Cloudy 64 17.8 49 9.7 59 59 Calm 29.98 1015 10 16 0.00 0.00
12:56 pm 12:56 Sunny 67 19.3 49 9.2 52 52 SSE 6 9 29.97 1015 10 16 0.00 0.00
1:56 pm 13:56 Sunny 69 20.8 47 8.1 44 44 E 3 6 29.94 1014 10 16 0.00 0.00
2:56 pm 14:56 Sunny 71 21.5 46 7.7 41 41 ESE 5 7 29.94 1014 10 16 0.00 0.00
3:56 pm 15:56 Mostly Sunny 71 21.6 47 8.1 42 42 Calm 29.93 1013 10 16 0.00 0.00
4:56 pm 16:56 Cloudy 70 21.2 47 8.5 44 44 ENE 7 11 29.95 1014 10 16 0.00 0.00
5:56 pm 17:56 Mostly Sunny 68 19.8 50 9.9 53 53 E 5 7 29.96 1015 10 16 0.00 0.00
6:56 pm 18:56 Cloudy 65 18.6 50 10.2 58 58 SE 8 13 29.96 1015 10 16 0.00 0.00
7:56 pm 19:56 Cloudy 62 16.4 45 7.3 55 55 SSE 17 28 29.99 1016 10 16 0.01 0.13
8:56 pm 20:56 Cloudy with Nearby Thunderstorms 59 14.9 49 9.5 70 70 SSW 20 31 30.04 1017 10 16 0.00 0.00
9:56 pm 21:56 Clear 56 13.4 48 8.9 74 74 SSE 12 19 30.04 1017 10 16 0.00 0.00
10:56 pm 22:56 Clear 54 12.1 46 8 76 76 SSE 8 13 30.03 1017 10 16 0.00 0.00
11:56 pm 23:56 Clear 56 13.2 48 8.7 74 74 SSW 7 11 30.01 1016 10 16 0.00 0.00

Powered by AerisWeather